Filtrer par Nom Sexe Groupe d'age
Picarde Baie de Somme GranFondo 2000
RG. DOS. TEMPS CAT RG. POINTS
1 545 DUGOUCHET DENIS 04:38:03:000 D 1 320.00 CHEF DU PONT, FRANCE
2 1 JALABERT LAURENT 04:38:06:000 D 2 319.98 MONTAUBAN, FRANCE
3 133 FOSSE ANDRE 04:50:20:000 F 1 315.80 SOISSONS, FRANCE
4 160 VASSEUR LOIC 04:50:21:000 C 1 315.79 , FRANCE
5 292 PAUCHET GILLES 04:50:24:000 C 2 315.78 SAINT BENOIT LA FORET, FRANCE
6 647 WANNEZ DIMITRI 04:50:28:000 D 3 315.75 MONT DE L ENCLUS, BELGIQUE
9 92 FIRMIN THIERRY 04:50:39:000 D 5 315.69 CLAYE SOUILLY, FRANCE
10 161 DEDONEQUER CEDRIC 04:51:17:000 D 6 315.47 , FRANCE
11 477 GUILLAUME LAURENT 04:57:07:000 D 7 313.48 BETHISY ST PIERRE, FRANCE
12 86 GIORGALLA SERGE 05:02:10:000 E 1 311.75 paris, France
13 131 KLIS DIDIER 05:02:15:000 D 8 311.72 LOON PLAGE, France
14 446 ANDRIEUX J.CLAUDE 05:02:16:000 D 9 311.72 MARGNY LES COMPIEGNE, FRANCE
15 667 DELDYCKE OLIVIER 05:02:18:000 C 4 311.70 STRAZEELE, FRANCE
16 130 WOZNIAK PASCAL 05:02:23:000 D 10 311.68 CRAYWICK, FRANCE
17 146 CASPER JIMMY 05:02:29:000 C 5 311.64 MONTDIDIER, France
18 125 EVERAERT MICHEL 05:02:34:000 D 11 311.61 COUDEKERQUE BRANCHE, FRANCE
19 68 LEUCKX MARC 05:04:11:000 D 12 311.06 LENNIK, BELGIQUE
20 149 CHARLEY FREDERIQUE 05:04:42:000 C 6 310.88 SAINT MAULVIS, FRANCE
21 461 TYE KEVIN 05:04:45:000 D 13 310.87 MAIDSTONE (KENT), Royaume-Uni
22 359 VAN ROY MARC 05:04:49:000 E 2 310.84 WESTERLO, BELGIQUE
23 620 DELARACE PHILIPPE 05:04:57:000 D 14 310.80 CALAIS, France
24 481 GRATIOT CHRISTIAN 05:04:59:000 D 15 310.79 Villers cotterets, France
25 107 DEHOUPE CLAUDE 05:05:03:000 E 3 310.76 COUDEKERQUE BRANCHE, FRANCE
26 339 FAY THIERRY 05:05:13:000 E 4 310.71 ALBERT, FRANCE
27 116 MARK HAYLETT 05:05:26:000 C 7 310.63 , Royaume-Uni
28 406 DUCROCQ STEPHANE 05:05:29:000 D 16 310.62 DUNKERQUE, FRANCE
29 412 FICK JEAN FRANCOIS 05:05:32:000 C 8 310.60 CAPPELLE LA GRANDE, FRANCE
30 536 PLISSON ANTHONY 05:05:36:000 C 9 310.58 , FRANCE
31 103 THERON LAURENT 05:05:39:000 D 17 310.56 ST QUENTIN, FRANCE
32 309 LESENFANTS LEON 05:06:35:000 E 5 310.24 LIERNEUX, BELGIQUE
33 656 BRIGHEL STEPHANE 05:12:56:000 D 18 308.07 CLERMONT, FRANCE
34 101 DHAUSSY FREDERIC 05:13:25:000 D 19 307.90 ST TRICAT, FRANCE
35 471 GRAIRE CHRISTOPHE 05:13:28:000 D 20 307.88 MAROMME LA MARNE, FRANCE
36 112 DANIELS JEAN LUC 05:13:32:000 E 6 307.86 FLERON, BELGIQUE
37 590 YOUNG DAVID 05:13:37:000 D 21 307.83 WITHAM, UK
38 152 FROIDMONT ANDRE 05:13:40:000 F 2 307.82 HACCOURT, BELGIQUE
39 79 ASHTON TIM 05:13:52:000 E 7 307.75 LINCOLN, Royaume-Uni
40 54 DICKHOUT JAN 05:13:55:000 F 3 307.73 EINDHOVEN, Pays-Bas
41 480 TINGHINO JOSEPH 05:14:03:000 E 8 307.69 FLINS SUR SEINE, FRANCE
42 575 DEPOILLY BERNARD 05:14:05:000 D 22 307.67 ST BLIMONT, FRANCE
43 452 DABOVAL ARNAUD 05:14:07:000 C 10 307.66 AIRAINES, FRANCE
44 489 KOCHANSKI PHILIPPE 05:14:11:000 D 23 307.64 WULVERDINGUE, FRANCE
45 662 BARRE OLIVIER 05:14:13:000 E 9 307.63 FONTAINE AU PIRE, FRANCE
46 100 SAMRAY FRANCIS 05:14:21:000 E 10 307.58 LIERNEUX, BELGIQUE
47 511 MARECHAL ERIC 05:14:24:000 E 11 307.57 ERONDELLE, France
48 546 MARTIN CLAUDE 05:14:25:000 F 4 307.56 CHARTRES, FRANCE
49 64 PATUEL IAN 05:14:29:000 D 24 307.54 BEVILLE LE COMTE, France
50 94 FRERES JOSEPH 05:14:30:000 E 12 307.53 VIELSALM, BELGIQUE
51 387 POUILLON GILLES 05:14:33:000 D 25 307.51 VITRY SUR SEINE, FRANCE
52 414 VALLEE GUILLAUME 05:14:36:000 D 26 307.50 ROUEN, FRANCE
53 147 MIDDLETON KEITH 05:14:41:000 E 13 307.47 LINCOLN, Royaume-Uni
54 655 DELARACE JEAN MARC 05:14:44:000 D 27 307.45 CALAIS, FRANCE
55 58 WILLIATTE HERVE 05:14:47:000 E 14 307.44 LOMPRET, France
56 594 COUCHMAN TONY 05:14:51:000 E 15 307.41 HARLOW, Royaume-Uni
57 88 MASSON BRUNO 05:14:52:000 D 28 307.41 DREUX, FRANCE
58 355 BOURBIER JEAN-MICHEL 05:14:56:000 E 16 307.38 NOINTEL, FRANCE
59 246 LECOIN ARMAND 05:15:01:000 F 5 307.36 MIANNAY, FRANCE
60 444 UGOLIN SERGE 05:15:04:000 E 17 307.34 COUDUN, FRANCE
61 84 FREZIERES JEROME 05:15:10:000 D 29 307.30 MAISONS ALFORT, FRANCE
62 87 HIMEUR FRANCIS 05:15:12:000 D 30 307.29 ORRY LA VILLE, FRANCE
63 365 PRUD HOMME RICHARD 05:15:16:000 D 31 307.27 ANSACQ, FRANCE
64 642 CARVIN THIERRY 05:15:19:000 D 32 307.25 MACHEMONT, FRANCE
65 602 GERARDIN ALEX 05:15:28:000 F 6 307.20 AIGLEMONT, FRANCE
66 105 MALLOTTEAUX FABIAN 05:16:20:000 D 33 306.90 SAMBREVILLE, BELGIQUE
67 435 GORET PIERRE JEAN 05:16:25:000 D 34 306.88 VENIZEL, FRANCE
68 57 MALLOTTEAUX LUCIEN-JEAN 05:16:28:000 F 7 306.86 FALISOLLE, BELGIQUE
69 340 CANDAS DIDIER 05:16:32:000 E 18 306.84 ALBERT, FRANCE
70 265 JORIS ALEX 05:16:36:000 E 19 306.81 MARCHE EN FAMENNE, BELGIQUE
71 419 ROLLAND LUCIEN 05:16:39:000 F 8 306.80 VILLIERS SUR MARNE, FRANCE
72 118 COLIN ADDISON 05:16:41:000 D 35 306.79 FARNHAM SURREY, Royaume-Uni
73 474 BEGUERIE JEROME 05:16:45:000 C 11 306.76 ST PAUL, FRANCE
74 76 LAMBOTTE JEAN JACQUES 05:16:48:000 F 9 306.75 TILFF, BELGIQUE
75 120 HUBEAU MARC 05:16:50:000 D 36 306.73 DURBY (BOMAL), BELGIQUE
76 415 DEWEZ PIERRE 05:16:52:000 E 20 306.72 TROIS-PONTS, BELGIQUE
77 49 ARENS JEAN CLAUDE 05:16:54:000 F 10 306.71 FROIDECONCHE, FRANCE
78 440 ENGLISH PETER 05:16:57:000 E 21 306.69 LINCOLN, Royaume-Uni
79 151 CHARLIER ANDRE 05:16:59:000 F 11 306.68 LIEGE ANGLEUR, BELGIQUE
80 547 MANTEZ STEPHANE 05:17:05:000 D 37 306.65 ODEREN, FRANCE
81 482 ANNEQUIN JEAN-MICHEL 05:17:08:000 F 12 306.63 MONTJAVOULT, FRANCE
82 548 CORION CHRISTOPHE 05:17:09:000 D 38 306.62 CALAIS, FRANCE
83 298 LENOIR DANIEL 05:17:13:000 D 39 306.60 GUARBECQUE, FRANCE
84 495 PAUCHET JOEL 05:17:18:000 E 22 306.57 SAILLY FLIBEAUCOURT, FRANCE
85 467 FORREST WILLIAM 05:17:25:000 E 23 306.53 SURREY, Royaume-Uni
86 73 HOCHART FREDERIC 05:17:27:000 E 24 306.52 SŠVRES, FRANCE
87 622 BEN DOMINIQUE 05:17:29:000 E 25 306.51 CALAIS, FRANCE
88 395 GRILL NICOLAS 05:17:32:000 D 40 306.49 SACY, FRANCE
89 350 LEPRETRE ARNAUD 05:17:34:000 D 41 306.48 LE NEUBOURG, FRANCE
90 341 FIERS PHILIPPE 05:17:41:000 E 26 306.44 CARVIN, FRANCE
91 96 TAMPIGNY SYLVAIN 05:17:45:000 E 27 306.42 CAMON, FRANCE
92 636 VAUCHER ERIC 05:17:46:000 D 42 306.42 CLERMONT, FRANCE
93 93 REY PIERRE 05:17:51:000 G 1 306.39 CASTELCULIER, FRANCE
94 164 BOTTO MIKAEL 05:17:52:000 C 12 306.38 CLAYE SOUILLY, FRANCE
95 279 CENS GERARD 05:17:57:000 E 28 306.35 PLACHY BUYON, FRANCE
96 413 HIDDEN THIERRY 05:18:05:000 D 43 306.31 GRANDE SYNTHE, FRANCE
97 74 LAUNAY MICHEL 05:18:06:000 G 2 306.30 CHEVREUSE, FRANCE
98 334 BALEIRA ROGIERO 05:18:09:000 F 13 306.28 LE BLANC MESNIL, FRANCE
99 138 BLANQUET MARCEL 05:18:15:000 E 29 306.25 PLEINE SEVE, FRANCE
100 55 PEZET JACQUES 05:18:21:000 E 30 306.21 LA VARENNE ST HILAIRE, FRANCE
101 534 ASSELIN DAVID 05:18:25:000 D 44 306.19 FEROLLES, FRANCE
102 418 BERTIN RICHARD 05:18:30:000 D 45 306.16 AINCOURT, FRANCE
105 665 ALLARD THIERRY 05:22:04:000 D 46 304.94 ST JANS CAPPEL, FRANCE
106 443 BOULANGER BERNARD 05:22:06:000 D 47 304.93 LES MESNEUX, FRANCE
107 493 VIGNION JEAN MARC 05:22:09:000 D 48 304.92 WATTEN, FRANCE
108 581 EDWARDS JASON 05:23:15:000 D 49 304.54 HORSNAM, FRANCE
109 650 LIGTHART JOCHEM 05:23:26:000 D 50 304.48 ROTTERDAM, Pays-Bas
110 304 ORWIN JOHN 05:23:28:000 G 3 304.46 LONDRES, Royaume-Uni
111 668 STAELENS HUGO 05:23:33:000 E 31 304.44 VARSENARE, BELGIQUE
112 454 FOUDRIAT J.PIERRE 05:23:35:000 G 4 304.43 AUMALE, FRANCE
113 632 COTE DES COMBES MICHEL 05:23:40:000 F 14 304.40 ST PATHUS, FRANCE
114 599 LETOURNEUR ROBERT 05:23:44:000 G 5 304.37 CHEVRY COSSIGNY, FRANCE
115 648 PLYSON ANDRE 05:23:53:000 F 15 304.32 HAMES BOUCRES, FRANCE
116 373 CLARK COLIN 05:24:00:000 E 32 304.28 DONCASTER, Royaume-Uni
117 410 FAELENS J.PIERRE 05:24:03:000 E 33 304.26 BEAUVAIS, FRANCE
118 523 FOURMONT ROBERT 05:24:12:000 I 1 304.21 FOUGERES, FRANCE
119 530 GERMOND JACQUES 05:24:14:000 F 16 304.20 TRAINOU, FRANCE
120 369 KERR GRAHAM 05:24:17:000 F 17 304.19 WEST SUSSEX, Royaume-Uni
121 378 LEVASSEUR BERTRAND 05:24:21:000 F 18 304.16 OFFRANVILLE, FRANCE
122 90 PEGUIN BERNARD 05:24:25:000 F 19 304.14 COUPVRAY, FRANCE
123 631 FLORENTIN PHILIPPE 05:24:27:000 D 51 304.13 BEAUVAIS, FRANCE
124 504 BAUDIN ERIC 05:24:30:000 C 13 304.11 LIERCOURT, FRANCE
125 97 LECLERCQ MARCEL 05:24:33:000 E 34 304.09 LOUVEIGNE, BELGIQUE
126 109 LANDEAU GILBERT 05:24:37:000 E 35 304.07 FLINS SUR SEINE, FRANCE
127 114 BROOKS KEITH 05:24:39:000 F 20 304.06 SURREY, Royaume-Uni
128 347 LESUR PHILIPPE 05:24:43:000 E 36 304.04 CROIXRAULT, FRANCE
129 123 LALLEMENT CHRISTIAN 05:24:46:000 E 37 304.02 STOUMONT, BELGIQUE
130 81 STANTON DAVID 05:24:49:000 G 6 304.00 LONDON, Royaume-Uni
131 59 LONDAITSBEHERE JEAN 05:24:51:000 G 7 303.99 ORRY LA VILLE, FRANCE
132 472 MOUHAT JAMES 05:24:53:000 D 52 303.98 QUAROUBLE, FRANCE
133 371 LATASTE JEAN FRANCOIS 05:24:56:000 F 21 303.96 MARCOUSSIS, FRANCE
134 300 COTTREZ CHRISTOPHE 05:25:01:000 D 53 303.94 GUARBECQUE, FRANCE
135 606 HERBERT STEPHANE 05:33:13:000 D 54 301.13 MOLLIENS DREUIL, FRANCE
136 455 MUZYCZKA BRUNO 05:34:25:000 D 55 300.72 AIRAINES, FRANCE
137 451 DABOVAL GAUTHIER 05:34:28:000 C 14 300.70 ALLERY, FRANCE
138 254 SEVIOUR ANDY 05:34:33:000 D 56 300.67 HAILSHAM, Royaume-Uni
139 525 MANCEAU J.MICHEL 05:34:42:000 C 15 300.62 FLEURIGNE, FRANCE
140 963 FLEAR JOHN 05:35:02:000 G 8 300.51 LINCOLN, Royaume-uni
143 119 ROGER MAURICE 05:35:24:000 G 9 300.38 COURS DE PILE, FRANCE
144 342 DELAPORTE FRANCIS 05:35:27:000 F 22 300.37 ASNIERES, FRANCE
145 700 DAVID DIDIER 05:35:30:000 E 38 300.35 HAZEBROUCK, FRANCE
147 380 HERMANT FRANCK 05:35:35:000 E 39 300.32 ST LEGER LES DOMART, FRANCE
148 643 MARTINACHE JEAN PIERRE 05:35:38:000 F 24 300.30 MACHEMONT, FRANCE
149 157 TROY JACQUELINE 05:35:43:000 B 1 300.27 HENIN BEAUMONT, FRANCE
150 158 BLANQUET OLIVIER 05:35:44:000 D 57 300.27 QUIERY LA MOTTE, FRANCE
151 134 SIMONEAU ALAIN 05:35:46:000 F 25 300.26 VARENGEVILLE SUR MER, FRANCE
152 122 POTTY JEAN 05:35:48:000 E 40 300.25 SPRIMONT, BELGIQUE
153 299 PANIEZ PIERRE 05:35:52:000 F 26 300.22 ST VENANT, FRANCE
154 382 LASNE JEAN PIERRE 05:35:53:000 F 27 300.22 CHAINGY, FRANCE
155 431 GARNIER DOMINIQUE 05:35:55:000 E 41 300.21 LOUVILLIERS EN DROUAIS, FRANCE
156 487 MILLIOT MICHEL 05:35:58:000 F 28 300.19 HOLQUE, FRANCE
157 108 NISIN CHRISTOPHE 05:36:03:000 D 58 300.16 MONTMAGNY, FRANCE
158 126 AUGER PASCAL 05:36:04:000 E 42 300.15 ENGHIEN LES BAINS, FRANCE
159 104 GODEFROY BRUNO 05:36:06:000 D 59 300.14 DEUIL LA BARRE, FRANCE
160 576 MOHNEN JULE 05:39:13:000 F 29 299.08 AYWAILLE, BELGIQUE
161 127 LE CARFF CLAUDE 05:39:16:000 F 30 299.06 ARRADON, FRANCE
162 163 BEERNAERT DIRK 05:39:19:000 E 43 299.04 KUURNE, BELGIQUE
163 153 VROONEN ALBERT 05:39:24:000 F 31 299.01 VISE, BELGIQUE
165 660 MERCIER PATRICK 05:39:27:000 E 44 299.00 WATTRELOS, FRANCE
166 136 DURNEZ LIEVE 05:39:33:000 A 1 298.96 OOSTDUINKERKE, BELGIQUE
167 137 COMPERNOLLE FREDDY 05:39:33:000 D 61 298.96 OOSTDUINKERKE, BELGIQUE
168 537 OMONT ALBERT 05:39:35:000 F 32 298.95 SABRAS, France
169 244 TRANCART OLIVIER 05:39:44:000 D 62 298.90 PONT REMY, FRANCE
171 267 MASTIN YVES 05:39:47:000 F 33 298.88 RAIMBEAUCOURT, FRANCE
172 351 PICARD ALAIN 05:39:50:000 F 34 298.87 ST SAULVE, FRANCE
173 110 DOUVILLE GERARD 05:40:05:000 E 46 298.78 HAUTE EPINE, FRANCE
174 600 MAZZOLINI PASCAL 05:40:45:000 E 47 298.55 CORMONTREUIL, FRANCE
175 573 MARQUES PAUL 05:43:29:000 G 10 297.62 OSNY, FRANCE
176 159 ETIENNE JEAN 05:43:42:000 F 35 297.54 AYWAILLE, BELGIQUE
177 645 MAZUY LOUIS 05:43:45:000 E 48 297.53 MAUBEUGE, FRANCE
178 294 POUJADE JEAN CLAUDE 05:43:49:000 F 36 297.50 PARIS, FRANCE
179 383 MANCHE PHILIPPE 05:43:51:000 E 49 297.49 REIMS, France
180 144 ODILE PATRICK 05:43:52:000 E 50 297.49 REIMS, FRANCE
181 623 MARANT PHILIPPE 05:43:54:000 D 63 297.48 MARCK, FRANCE
182 580 RICKARD JULIAN 05:43:56:000 C 16 297.46 EWELL, Royaume-Uni
183 494 VANOC BERTRAND 05:45:28:000 E 51 296.94 EPERLECQUES, FRANCE
184 491 LEMAIRE FABRICE 05:45:32:000 C 17 296.92 LYON, FRANCE
185 492 WAROT COME 05:45:36:000 D 64 296.89 EPERLECQUES, FRANCE
186 529 VILATTE PHILIPPE 05:45:37:000 E 52 296.89 , FRANCE
187 616 DELANCHY OLIVIER 05:45:39:000 D 65 296.88 MAYSEL, FRANCE
188 641 DECQ JEAN RENE 05:45:41:000 E 53 296.87 LEERS, FRANCE
189 617 SAUTEREAU ANDRE 05:45:45:000 E 54 296.84 PRECY SUR OISE, FRANCE
190 111 BOVINELLI JACQUES 05:45:49:000 F 37 296.82 VERNOUILLET, FRANCE
191 611 MARECHAL ALAIN 05:45:51:000 E 55 296.81 BEAUFAYS, BELGIQUE
192 618 MARIE BERTRAND 05:45:51:000 D 66 296.81 NOGENT SUR OISE, FRANCE
193 610 DE PAUW PHILIPPE 05:45:53:000 E 56 296.80 BAUFAMS (CHAUDFONTAINE), BELGIQUE
194 367 LESCUREUX JEAN 05:45:55:000 F 38 296.79 RAINNEVILLE, FRANCE
195 306 GRUN PIERRE 05:46:00:000 E 57 296.76 LUXEMBOURG, 23
196 438 PLET MICHEL 05:46:06:000 F 39 296.72 PERRIERS LA CAMPAGNE, FRANCE
197 408 BARBIER PHILIPPE 05:46:08:000 F 40 296.71 AMIENS, FRANCE
198 437 PEIFFER THIERRY 05:46:10:000 D 67 296.70 NEUVILLE ST AMAND, FRANCE
199 401 VANDAMME J.MICHEL 05:46:12:000 F 41 296.69 LONGUENESSE, FRANCE
200 633 WILLOT JEAN-BAPTISTE 05:46:14:000 C 18 296.68 ARRAS, FRANCE
201 597 CHARLEY FRANCIS 05:46:17:000 F 42 296.66 SAINT MAULVIS, FRANCE
202 598 CHARLEY JEAN FRANCOIS 05:46:21:000 E 58 296.64 BEAUVAIS, FRANCE
203 242 CHARLET JEAN FRANCOIS 05:46:25:000 E 59 296.62 ABBEVILLE, FRANCE
204 303 CABUZEL JEAN MICHEL 05:47:43:000 E 60 296.17 BARON, FRANCE
205 635 DUTEIL PAUL 05:48:37:000 E 61 295.86 LE TRAIT, FRANCE
206 400 LETELIER JEAN CLAUDE 05:49:09:000 F 43 295.68 CHAMBLY, FRANCE
207 442 NEVEUX J.CLAUDE 05:52:07:000 G 11 294.67 FRESSENNEVILLE, FRANCE
208 83 RANSON JEAN HERVE 05:54:02:000 D 68 294.01 GRANDE SYNTHE, FRANCE
209 128 COURTOIS RAYMOND 05:54:07:000 G 12 293.98 SULLY, FRANCE
210 402 QUENU HERVE 05:54:10:000 E 62 293.96 HALLENCOURT, FRANCE
211 608 VAN BEMMEL JOSEPH 05:54:13:000 E 63 293.95 HOOGLAND, Pays-Bas
212 330 EARLE MARTIN 05:54:15:000 D 69 293.94 LONDON, FRANCE
213 255 RICHARDSON ROCCO 05:54:17:000 G 13 293.92 HARROW, Royaume-Uni
214 490 PICQUENDAR DAMIEN 05:54:24:000 E 64 293.88 EPERLECQUES, FRANCE
215 652 HEAPS MICHAEL 05:54:31:000 E 65 293.84 SAINTE CATHERINE, FRANCE
216 245 FOUQUET DANIEL 05:54:48:000 F 44 293.75 COLOMBES, France
217 601 DENIS FABRICE 06:00:39:000 E 66 291.75 CHARLEVILLE MEZIERES, FRANCE
218 518 NOZIERE BRUNO 06:00:41:000 D 70 291.74 EAUCOURT, FRANCE
219 604 ROSSIGNOL PATRICE 06:00:43:000 E 67 291.72 CACHAN, FRANCE
220 411 PARIN J.CLAUDE 06:00:45:000 E 68 291.71 AILLY SUR NOYE, FRANCE
221 556 THOMASSIN DENIS 06:00:47:000 D 71 291.70 BOIS GUILLAUME, FRANCE
222 513 THOMASSIN ALEXIS 06:00:50:000 C 19 291.68 ABBEVILLE, FRANCE
223 582 TAYCOUR DAVID 06:00:54:000 C 20 291.66 HURLEY, Royaume-Uni
224 638 BUREAU CHRISTIAN 06:00:55:000 F 45 291.65 BEVEUGE, FRANCE
225 375 DEBLIRE GUY 06:01:00:000 E 69 291.63 VIELSALM, BELGIQUE
226 653 TARTARE DAVID 06:01:03:000 D 72 291.61 FOUQUIERES LES BETHUNE, France
227 588 PRINS JEAN HARRY 06:01:06:000 F 46 291.59 AMIENS, FRANCE
228 312 ROCHE JEAN CLAUDE 06:01:09:000 F 47 291.57 ST QUENTIN, FRANCE
229 407 CARON MICHEL 06:01:15:000 E 70 291.54 ARMENTIERES, FRANCE
230 268 HARTMAN WILLEM 06:01:16:000 F 48 291.54 Amersfoort, Pays-Bas
231 637 PRUVOST RENE 06:02:50:000 F 49 291.00 MONDICOURT, FRANCE
232 162 LEBEL PHILIPPE 06:02:52:000 E 71 290.99 ABBEVILLE, FRANCE
233 627 TRIBAUDEAU LOUIS 06:02:55:000 F 50 290.97 DOULLENS, FRANCE
234 53 PATIENCE JENNIFER 06:03:59:000 B 2 290.61 ESSEX, Royaume-Uni
235 478 SALLEMBIEN J.PIERRE 06:04:02:000 F 51 290.59 MORISEL, FRANCE
236 115 MALCOLM DEWAR 06:04:05:000 F 52 290.57 NORMANDY, SURREY, Royaume-Uni
237 257 TAPE DANIEL 06:04:08:000 E 72 290.55 CHELMSFORD, Royaume-Uni
239 352 TAUPIN CLAUDE 06:04:23:000 G 14 290.47 BERTRIMONT, FRANCE
240 422 PEERE LAURENT 06:05:09:000 D 73 290.21 DEULEMONT, FRANCE
241 77 WIELINGA JAN YPE 06:05:14:000 G 15 290.18 ALKMAAR, Pays-Bas
242 658 LECOQ MARCEL 06:05:18:000 F 53 290.15 VERNEUIL SUR SEINE, FRANCE
243 562 MONTI ERIC 06:05:19:000 D 74 290.15 GORENFLOS, FRANCE
244 430 LALLEMAND PHILIPPE 06:05:23:000 D 75 290.13 RONCQ, FRANCE
245 377 PICHOT ANDRE 06:05:27:000 F 54 290.10 ST AY, FRANCE
247 464 DUMEZ JEAN CLAUDE 06:05:30:000 D 76 290.09 PERENCHIES, FRANCE
248 434 LE BRETON BERNARD 06:05:33:000 F 55 290.07 LOUVIERS, FRANCE
249 425 CAZIER GAEL 06:05:36:000 C 21 290.05 BEAUVAIS, FRANCE
250 603 WITTS CHARLES JOHN 06:05:40:000 E 73 290.03 SURREY, France
251 343 BILDE ALAIN 06:05:41:000 F 56 290.02 TALMAS, FRANCE
252 256 CREESE LIZ 06:06:54:000 B 3 289.61 S RUISLIP, Royaume-Uni
253 327 PAINE ANTHONY 06:09:17:000 F 57 288.79 BATH, Royaume-Uni
254 398 BINGHAM ROGER 06:09:22:000 D 77 288.76 SOUTH AMPTON, Royaume-Uni
255 503 BERLE FRANCOIS 06:10:00:000 D 78 288.55 LIERCOURT, FRANCE
256 264 FERNET J.PAUL 06:10:17:000 G 16 288.45 MOREUIL, FRANCE
257 661 PIERRU HENRI 06:10:27:000 F 58 288.39 , FRANCE
258 348 LAMOTTE MICHEL 06:12:17:000 F 59 287.77 GLISY, FRANCE
259 393 COLEAUX MICHEL 06:12:29:000 D 79 287.70 ESCAUDAIN, FRANCE
260 462 DEBREYER DIDIER 06:12:34:000 E 74 287.67 LOMME, FRANCE
261 458 PONCHANT RENE 06:12:37:000 E 75 287.65 LOMME, FRANCE
262 459 AUNEZ MARC 06:12:42:000 E 76 287.62 LILLE, FRANCE
263 433 DHUYSER GEORGES 06:12:46:000 F 60 287.60 HESDIN, FRANCE
264 634 GAILLARD PATRICK 06:13:19:000 F 61 287.41 CHEVILLY LA RUE, FRANCE
265 654 RUAULT PIERRE HERVE 06:13:52:000 G 17 287.23 ST CLOUD, FRANCE
266 595 PEDRETTI GIOVANNI 06:14:05:000 F 62 287.15 BOUSSY ST ANTOINE, FRANCE
267 374 FRISSONG STEPHANE 06:14:40:000 D 80 286.95 MORGNY LA POMMERAYE, FRANCE
268 344 CAUVIN PATRICE 06:15:04:000 E 77 286.81 ALBERT, FRANCE
269 615 DUHO DOMINIQUE 06:15:09:000 E 78 286.79 GRAND COURONNE, FRANCE
270 266 DUFLOS MARC 06:15:21:000 E 79 286.72 HALLENCOURT, France
271 376 PEART ANTHONY 06:16:23:000 E 80 286.36 LONDON, Royaume-Uni
272 305 BERTHE ALAIN 06:17:34:000 G 18 285.96 DOULLENS, FRANCE
273 579 LEITCH JOHN 06:18:25:000 F 63 285.67 BETCHWORTH, SURREY, UK
274 85 GOUARD ANICK 06:18:38:000 B 4 285.60 PETIT APPEVILLE, FRANCE
275 554 KRAMER ANTON 06:21:10:000 E 81 284.73 UTRECHT, Pays-Bas
276 507 DUPONT J.CLAUDE 06:21:49:000 G 19 284.51 EAUCOURT, FRANCE
277 140 SANNIER PIERRE 06:21:53:000 E 82 284.48 QUESNOY LE MONTANT, FRANCE
278 510 KUENHEN JEROME ET SYLVIE 06:21:57:000 D 81 284.46 ABBEVILLE, France
279 596 BOSSU CHRISTIAN 06:22:02:000 F 64 284.43 BRUNOY, FRANCE
280 607 BATAILLE DENIS 06:22:07:000 D 82 284.40 MARSEILLE EN BEAUVAISIS, FRANCE
281 259 SEVESTRE DOMINIQUE 06:22:08:000 D 83 284.40 GUYANCOURT, France
282 403 HERVIEUX CLEMENT 06:22:51:000 C 22 284.15 SACY, FRANCE
283 302 HARQUIN ALAIN 06:23:09:000 E 83 284.05 NAMPONT ST MARTIN, FRANCE
284 499 DERCOURT ALAIN 06:23:16:000 E 84 284.01 ESTREES LES CRECY, FRANCE
285 139 SANNIER HENRI 06:23:26:000 F 65 283.95 PARIS, France
286 540 VALLEE JOSE 06:23:39:000 E 85 283.88 RUEIL, FRANCE
287 124 INDURAIN ROBERT 06:23:59:000 G 20 283.76 BEAUMONT LE ROGER, France
288 646 ROHART J.PAUL 06:24:00:000 F 66 283.76 CUCQ, FRANCE
289 388 CHANIER GERARD 06:24:10:000 F 67 283.70 GUEUX, FRANCE
290 539 ALEMAN ALAIN 06:24:30:000 E 86 283.59 LE PECQ, FRANCE
291 565 REMY ETIENNE 06:24:36:000 D 84 283.55 LIERNEUX, BELGIQUE
293 441 DAY JOHN 06:25:19:000 E 88 283.31 EPSOM SURREY, Royaume-Uni
294 328 BARRY-JOHN CLARK 06:25:36:000 F 68 283.21 BISHUPS STORTFORD HERTS, Royaume-Uni
295 577 MUZYCZKA NICOLAS 06:26:04:000 G 21 283.05 LONGPRE LES CORPS SAINTS, FRANCE
297 612 VAN HOUTTE DIDIER 06:27:52:000 D 85 282.44 WERVIK, BELGIQUE
298 262 STREET MICHAEL 06:27:59:000 G 22 282.40 BENFLEET, Royaume-Uni
299 664 LEFEBVRE JULIEN 06:28:28:000 C 23 282.23 SIERVILLE, FRANCE
300 453 DEHAN CHARLES 06:31:59:000 E 89 281.03 VIEUX ROUEN SUR BRESLE, FRANCE
301 644 GUYOT J.MARIE 06:32:04:000 E 90 281.00 MONTREUIL, FRANCE
302 333 TOULEAU J.YVES 06:33:13:000 F 70 280.61 DRANCY, FRANCE
303 619 STAUB NICOLAS 06:36:22:000 E 91 279.53 SALOUEL, FRANCE
304 409 SISCARO LOUIS 06:36:43:000 F 71 279.41 LAGNY LE SEC, FRANCE
305 463 BOISSADIE JEAN 06:36:46:000 F 72 279.39 PUISEUX EN RETZ, FRANCE
306 506 CAILLY JEAN FRANCOIS 06:36:48:000 D 86 279.38 MOYENNEVILLE, FRANCE
307 385 BISIAUX JACQUES 06:36:51:000 F 73 279.36 GONESSE, FRANCE
308 386 BISIAUX XAVIER 06:36:59:000 C 24 279.32 GONESSE, FRANCE
309 483 PERAULT OLIVIER 06:37:55:000 E 92 279.00 HARAVILLIERS, FRANCE
310 253 BEYNON CHRIS 06:38:30:000 D 87 278.80 COWLEY, Royaume-Uni
311 427 COTTENIER JOHAN 06:39:28:000 D 88 278.47 OTEGEM, BELGIQUE
312 429 MICHOLT JOHAN 06:39:31:000 D 89 278.45 OTEGEM, BELGIQUE
313 657 DE FAYER PETER 06:39:38:000 C 25 278.41 WAARMAARDE, BELGIQUE
314 555 SCELLIER LOIC 06:39:47:000 D 90 278.36 MONTATAIRE, FRANCE
316 570 LEROY PIERRE 06:40:00:000 E 94 278.29 CAMON, FRANCE
317 613 HULSBOS BERT 06:40:02:000 E 95 278.27 ALPHEN AAN DEN RIJN, Pays-Bas
318 476 HOLLEVILLE CLAUDE 06:40:08:000 F 74 278.24 BRETEUIL, FRANCE
319 291 CORNE PHILIPPE 06:40:50:000 F 75 278.00 ALLONVILLE, France
320 549 ADRIAENS HAN 06:41:12:000 C 26 277.88 EINDHOVEN, Pays-Bas
321 550 ADRIAENS JO 06:41:22:000 F 76 277.82 GENNEP, Pays-Bas
322 252 CHANIN NEVILLE 06:45:43:000 G 23 276.33 STROUD, Royaume-Uni
323 148 BALEDENT ERIC 06:51:17:000 C 27 274.43 ABBEVILLE, FRANCE
324 71 FARGUES CLAUDINE 06:53:19:000 B 5 273.73 MURAT SUR VEBRE, FRANCE
325 70 FARGUES HENRI 06:53:21:000 F 77 273.72 MURAT SUR VERBE, FRANCE
326 564 LECOMTE DANIEL 06:53:22:000 F 78 273.71 POIX DE PICARDIE, FRANCE
327 479 HEBERT J.LOUIS 06:53:29:000 G 24 273.67 LA BAULE, FRANCE
328 663 QUETIN PAUL 06:55:01:000 E 96 273.15 B GOUVY, BELGIQUE
329 363 MOTTARD JACQUES 06:58:34:000 E 97 271.94 SAIVE, BELGIQUE
330 364 MUTSERS JACQUES 06:58:38:000 E 98 271.91 OUPEY, BELGIQUE
331 362 AUGUSTIN MAURICE 06:58:41:000 G 25 271.89 OUPEYE, BELGIQUE
332 571 LAMBRECHT HENRI 06:58:46:000 G 26 271.87 HACCOURT, BELGIQUE
333 528 ROCHER DENIS 06:58:49:000 E 99 271.85 JARGEAU, France
334 563 DUCHEMIN BERNARD 06:58:57:000 E 100 271.80 VILLERS SUR MAREUIL, FRANCE
335 263 HASBROUCK DIDIER 06:59:22:000 E 101 271.66 VRED, FRANCE
336 586 MULDER RONALD 07:00:03:000 E 102 271.43 AMSTERDAM, Pays-Bas
337 585 TELLING JOB 07:00:05:000 E 103 271.42 ZALTBOMMEL, Pays-bas
338 155 RICHARD EMMS 07:00:07:000 D 91 271.40 WARWICKSHIRE, Royaume-Uni
339 154 CLARK PHILIP 07:00:09:000 D 92 271.39 SOUTHAM WARWICKSHIRE, Royaume-Uni
340 508 GODET PATRICK 07:01:29:000 E 104 270.94 ST RIQUIER, FRANCE
341 325 SCOTT PETER 07:04:19:000 E 105 269.97 LONDON, Royaume-Uni
342 331 ROBERTS DAVID 07:04:25:000 F 79 269.93 LONDRES, Royaume-Uni
343 370 CANDRE STPHANE 07:08:46:000 D 93 268.45 ABBEVILLE, FRANCE
344 605 Apontoweil Ron 07:08:49:000 D 94 268.43 NIEUWKOOP, Pays-Bas
345 428 CHOPIN REGIS 07:08:52:000 F 80 268.41 ABBEVILLE, FRANCE
346 621 SOARES EDUARDO 07:12:00:000 E 106 267.34 PARIS, FRANCE
347 625 PIVOTEAU PATRICK 07:12:04:000 E 107 267.32 VILLIERS SUR MANE, FRANCE
348 630 HECQUET CLAUDE 07:12:10:000 E 108 267.28 VILLEPARISIS, FRANCE
349 626 MAUDUIT CLAUDE 07:12:11:000 F 81 267.28 LE PERREUX SUR MARNE, FRANCE
350 659 HECQUET MICHEL 07:12:15:000 F 82 267.25 AIRAINES, FRANCE
351 468 NAINBY RICHARD 07:12:25:000 D 95 267.20 WEST SUSSEX, Royaume-Uni
352 469 NAINBY ANGELA 07:12:28:000 A 2 267.18 WEST SUSSEX, Royaume-Uni
353 335 HUPPERTZ PATRICK 07:15:57:000 E 109 265.99 VIELSALM, BELGIQUE
354 326 BINNS JOHN 07:23:34:000 E 110 263.38 LONDON, FRANCE
355 485 JACQUET WILLIAM 07:24:43:000 F 83 262.99 PONT DE L ARCHE, FRANCE
356 569 MINARD LUCIEN 07:38:01:000 F 84 258.44 YZENGREMER, FRANCE
357 568 BERQUER LOUIS 07:38:38:000 G 27 258.23 TULLY, FRANCE
358 553 KOOK HENK 07:51:18:000 E 111 253.90 UTRECHT, Pays-Bas
359 357 NUGENT DOMINIC 07:54:11:000 F 85 252.91 DROGHEDA COLOUTH, IRLANDE
360 356 MC ALEER GERRY 07:54:22:000 F 86 252.85 DROGHEDA COLOUTH, IRLANDE
361 288 RENOU PIERRE YVES 08:02:41:000 E 112 250.00 ST AUBIN DES LANDES, FRANCE

La Picarde Baie de Somme

Après une saison 2020 très particulière et face à cette pandémie qui s'étire en longueur, nous avons dû nous adapter.

Ainsi, c'est avec beaucoup de regrets que nous vous annonçons que La Picarde Baie de Somme ne sera pas organisée en 2021.

Nous travaillons afin que vous puissiez relever le défi de manière alternative.

Nous vous tiendrons informés.
TOP